{"data":{"norad_id":62259,"intl_designator":"2024-234A","name":"SXM-9","alt_names":[],"object_type":"PAYLOAD","status":"ACTIVE","operator":null,"country":"US","launch_date":"2024-12-05","launch_site_code":"AFETR","launch_vehicle":null,"mission":null,"orbit_class":"UNKNOWN","rcs_meters":null,"size_class":null,"mass_kg":null,"dimensions":null,"purposes":["comms"],"wikipedia_slug":null,"has_3d_model":false,"image_url":null,"decayed_at":null,"tle_current":{"epoch":"2026-05-24T23:38:38.700096Z","epoch_age_seconds":79823,"freshness":"FRESH","line1":"1 62259U 24234A   26144.98517014 -.00000208  00000+0  00000+0 0  9990","line2":"2 62259   0.0132 328.8981 0004935 345.1048 198.0809  1.00272768  5347","mean_motion":1.00272768,"eccentricity":0.0004935,"inclination_deg":0.0132,"raan_deg":328.8981,"arg_perigee_deg":345.1048,"mean_anomaly_deg":198.0809,"bstar":0,"rev_number":534,"period_min":1436.0828255983,"perigee_km":35765.511233628,"apogee_km":35807.127552088,"semimajor_km":42164.456392858,"source":"CELESTRAK","updated_at":"2026-05-25T13:38:14.149047Z"}}}